Location: Calgary
(51.0833°N, 114.0833°W)
Time: 01:59:53
(UTC-06:00)

OTV 5 (USA 277) - Visible Passes

Search period start: 23 September 2018 00:00
Search period end: 03 October 2018 00:00
Orbit: 387 x 394 km, 54.5° (Epoch: 08 September)

Date Brightness Start Highest point End Pass type
(mag) Time Alt. Az. Time Alt. Az. Time Alt. Az.
26 Sep ? 06:49:11 10° S 06:51:04 15° SE 06:52:57 10° E visible
28 Sep ? 06:31:26 10° SSW 06:34:04 24° SE 06:36:42 10° E visible
29 Sep ? 05:36:22 10° SSE 05:37:59 13° SE 05:39:35 10° ESE visible
30 Sep ? 06:14:52 15° SSW 06:17:07 38° SE 06:20:08 10° ENE visible
01 Oct ? 05:20:54 21° SE 05:20:57 21° SE 05:23:28 10° E visible
01 Oct ? 06:53:22 10° WSW 06:56:35 83° NNW 06:59:48 10° ENE visible
02 Oct ? 05:59:14 37° SW 06:00:13 61° SSE 06:03:24 10° ENE visible
